contact:dominique.lefevre@mio.osupytheas.fr, maurice.libes@osupytheas.fr, didier.mallarino@osupytheas.fr
Project:EMSO http://www.emso-fr.org/EMSO-France
Depth: 2436.0 m
Title:EMSO Ligure Ouest : Data MII capteur AQUADOPP
Date,Latitude,Longitude,X_East,Y_North,Z_Up,Amplitude_X,Amplitude_Y,Amplitude_Z,Batterie,SoundSpeed,Heading,Pitch,Roll,Pressure,TIS,Speed,Direction
, degrees North, degrees East, m.s-1, m.s-1,m.s-1, 1, 1, 1, Volt, m.s-1, degree, degree, degree, dbar, degree_C, m.s-1, degree
2022-06-09T00:04:03,42.805,6.029,0.009,0.043,0.004,106.0,108.0,103.0,13.4,1505.2,321.7,-0.7,1.8,2470.898,13.28,0.043,11.8
2022-06-09T00:07:03,42.805,6.029,0.026,0.029,0.02,106.0,107.0,102.0,13.4,1505.2,332.9,-0.7,1.8,2470.928,13.28,0.038,41.9
2022-06-09T00:10:03,42.805,6.029,0.044,-0.002,0.027,105.0,109.0,101.0,13.4,1505.2,325.8,-0.8,1.8,2470.932,13.28,0.044,92.6
2022-06-09T00:13:03,42.805,6.029,0.025,0.011,0.05,105.0,108.0,102.0,13.4,1505.2,322.4,-0.7,1.8,2470.933,13.28,0.027,66.3
2022-06-09T00:16:03,42.805,6.029,0.025,0.016,0.013,104.0,108.0,104.0,13.4,1505.2,330.6,-0.7,1.8,2470.923,13.28,0.029,57.4
2022-06-09T00:19:03,42.805,6.029,0.027,-0.007,0.008,105.0,108.0,103.0,13.3,1505.2,333.4,-0.7,1.8,2470.89,13.28,0.027,104.5
2022-06-09T00:22:03,42.805,6.029,0.02,0.034,0.039,105.0,107.0,102.0,13.4,1505.2,331.5,-0.7,1.8,2470.948,13.28,0.039,30.5
2022-06-09T00:25:03,42.805,6.029,0.031,0.015,0.013,105.0,106.0,102.0,13.3,1505.2,330.5,-0.7,1.8,2470.885,13.28,0.034,64.2
2022-06-09T00:28:03,42.805,6.029,0.04,0.025,-0.013,104.0,107.0,103.0,13.4,1505.2,334.0,-0.8,1.8,2470.874,13.28,0.047,58.0
2022-06-09T00:31:03,42.805,6.029,0.051,0.023,0.072,105.0,108.0,102.0,13.4,1505.2,323.7,-0.7,1.9,2470.928,13.28,0.055,65.7
2022-06-09T00:34:03,42.805,6.029,0.048,-0.005,-0.006,105.0,108.0,102.0,13.4,1505.2,324.1,-0.8,1.8,2470.918,13.28,0.048,95.9
2022-06-09T00:37:03,42.805,6.029,0.029,0.004,-0.007,105.0,106.0,102.0,13.4,1505.2,320.2,-0.8,1.8,2470.924,13.28,0.029,82.2
2022-06-09T00:40:03,42.805,6.029,0.037,0.004,-0.009,106.0,105.0,102.0,13.4,1505.2,333.8,-0.8,1.8,2470.91,13.28,0.037,83.8
2022-06-09T00:43:03,42.805,6.029,0.03,0.023,0.027,106.0,106.0,102.0,13.4,1505.2,322.8,-0.7,1.8,2470.891,13.28,0.037,52.5
2022-06-09T00:46:03,42.805,6.029,0.019,0.008,-0.009,104.0,108.0,103.0,13.4,1505.2,326.3,-0.7,1.8,2470.908,13.28,0.02,67.2
2022-06-09T00:49:03,42.805,6.029,0.041,0.016,-0.019,104.0,106.0,103.0,13.4,1505.2,325.2,-0.8,1.9,2470.945,13.28,0.044,68.7
2022-06-09T00:52:03,42.805,6.029,0.017,0.024,0.017,104.0,107.0,102.0,13.4,1505.2,327.9,-0.7,1.8,2470.95,13.28,0.029,35.3
2022-06-09T00:55:03,42.805,6.029,0.017,0.002,-0.011,105.0,106.0,103.0,13.4,1505.2,329.7,-0.7,1.8,2470.889,13.28,0.017,83.3
2022-06-09T00:58:03,42.805,6.029,0.038,-0.015,0.034,105.0,106.0,102.0,13.4,1505.2,331.6,-0.7,1.8,2470.904,13.28,0.04,111.5
2022-06-09T01:04:03,42.805,6.029,0.028,0.012,-0.002,106.0,108.0,103.0,13.4,1505.2,325.4,-0.7,1.9,2470.921,13.28,0.03,66.8
2022-06-09T01:07:03,42.805,6.029,0.033,0.01,-0.018,104.0,106.0,103.0,13.4,1505.2,321.4,-0.8,1.8,2470.955,13.28,0.034,73.1
2022-06-09T01:10:03,42.805,6.029,0.04,-0.004,-0.02,105.0,107.0,101.0,13.4,1505.2,326.5,-0.8,1.8,2470.942,13.28,0.04,95.7
2022-06-09T01:13:03,42.805,6.029,0.049,0.016,0.017,104.0,106.0,102.0,13.4,1505.2,323.4,-0.8,1.8,2470.929,13.28,0.051,71.9
2022-06-09T01:16:03,42.805,6.029,0.035,0.005,-0.002,105.0,106.0,103.0,13.4,1505.2,321.1,-0.7,1.8,2470.952,13.28,0.035,81.9
2022-06-09T01:19:03,42.805,6.029,0.039,0.0,-0.017,107.0,106.0,100.0,13.4,1505.2,324.6,-0.7,1.8,2470.954,13.28,0.039,90.0
2022-06-09T01:22:03,42.805,6.029,0.034,0.001,0.007,106.0,105.0,101.0,13.4,1505.2,330.6,-0.8,1.8,2470.932,13.28,0.034,88.3
2022-06-09T01:25:03,42.805,6.029,0.044,-0.008,-0.037,104.0,105.0,103.0,13.4,1505.2,328.7,-0.8,1.8,2470.951,13.28,0.044,100.3
2022-06-09T01:28:03,42.805,6.029,0.014,-0.001,-0.006,104.0,106.0,103.0,13.4,1505.2,327.2,-0.8,1.8,2470.935,13.28,0.014,94.1
2022-06-09T01:31:03,42.805,6.029,0.025,0.007,-0.005,105.0,105.0,102.0,13.4,1505.2,331.7,-0.7,1.9,2470.945,13.28,0.025,74.4
2022-06-09T01:34:03,42.805,6.029,0.049,0.003,-0.015,107.0,103.0,101.0,13.4,1505.2,327.1,-0.8,1.8,2470.896,13.28,0.049,86.5
2022-06-09T01:37:03,42.805,6.029,0.027,-0.011,-0.02,105.0,106.0,101.0,13.4,1505.2,331.7,-0.8,1.8,2470.889,13.28,0.029,112.2
2022-06-09T01:40:03,42.805,6.029,0.026,0.005,0.006,103.0,106.0,102.0,13.4,1505.2,327.6,-0.7,1.8,2470.937,13.28,0.026,79.1
2022-06-09T01:43:03,42.805,6.029,0.019,-0.011,-0.01,105.0,105.0,103.0,13.4,1505.2,331.3,-0.7,1.8,2470.915,13.28,0.021,120.1
2022-06-09T01:46:03,42.805,6.029,0.011,0.002,-0.009,105.0,106.0,102.0,13.3,1505.2,326.3,-0.7,1.9,2470.925,13.28,0.011,79.7
2022-06-09T01:49:03,42.805,6.029,0.038,0.001,-0.009,105.0,104.0,102.0,13.4,1505.2,326.0,-0.7,1.8,2470.909,13.28,0.038,88.5
2022-06-09T01:52:03,42.805,6.029,0.045,0.0,-0.001,105.0,106.0,102.0,13.4,1505.2,325.6,-0.8,1.8,2470.939,13.28,0.045,90.0
2022-06-09T01:55:03,42.805,6.029,0.035,-0.01,-0.011,105.0,106.0,102.0,13.4,1505.2,326.0,-0.7,1.8,2470.962,13.28,0.036,105.9
2022-06-09T01:58:03,42.805,6.029,0.041,-0.008,0.009,105.0,105.0,103.0,13.4,1505.2,328.6,-0.8,1.8,2470.898,13.28,0.041,101.0
2022-06-09T02:04:03,42.805,6.029,0.011,-0.001,-0.035,106.0,106.0,103.0,13.4,1505.2,323.5,-0.8,1.8,2470.96,13.28,0.011,95.2
2022-06-09T02:07:03,42.805,6.029,0.051,-0.014,0.001,105.0,104.0,103.0,13.3,1505.2,324.2,-0.8,1.8,2470.98,13.28,0.052,105.3
2022-06-09T02:10:03,42.805,6.029,0.031,0.005,0.005,106.0,106.0,102.0,13.4,1505.2,332.1,-0.7,1.8,2470.999,13.28,0.031,80.8
2022-06-09T02:13:03,42.805,6.029,0.061,-0.01,-0.001,105.0,104.0,103.0,13.4,1505.2,324.6,-0.8,1.8,2470.952,13.28,0.061,99.3
2022-06-09T02:16:03,42.805,6.029,0.056,-0.019,0.002,106.0,105.0,102.0,13.4,1505.2,333.6,-0.7,1.8,2470.912,13.28,0.059,108.7
2022-06-09T02:19:03,42.805,6.029,0.035,-0.008,-0.001,106.0,105.0,101.0,13.4,1505.2,329.4,-0.8,1.8,2470.941,13.28,0.035,102.9
2022-06-09T02:22:03,42.805,6.029,0.041,-0.021,-0.003,105.0,104.0,101.0,13.3,1505.2,332.1,-0.7,1.8,2470.948,13.28,0.046,117.1
2022-06-09T02:25:03,42.805,6.029,0.065,-0.019,0.018,105.0,105.0,102.0,13.3,1505.2,329.2,-0.8,1.8,2470.927,13.28,0.067,106.3
2022-06-09T02:28:03,42.805,6.029,0.056,-0.008,0.011,107.0,106.0,102.0,13.4,1505.2,322.0,-0.8,1.8,2470.95,13.28,0.056,98.1
2022-06-09T02:31:03,42.805,6.029,0.024,-0.008,-0.01,104.0,105.0,102.0,13.4,1505.2,331.6,-0.8,1.8,2470.886,13.28,0.025,108.4
2022-06-09T02:34:03,42.805,6.029,0.047,-0.016,-0.023,105.0,105.0,103.0,13.4,1505.2,326.9,-0.7,1.8,2470.925,13.28,0.049,108.8
2022-06-09T02:37:03,42.805,6.029,0.03,0.004,-0.008,106.0,105.0,102.0,13.4,1505.2,332.1,-0.7,1.8,2470.952,13.28,0.03,82.4
2022-06-09T02:40:03,42.805,6.029,0.066,-0.022,0.0,106.0,105.0,101.0,13.4,1505.2,327.2,-0.8,1.8,2470.949,13.28,0.069,108.4
2022-06-09T02:43:03,42.805,6.029,0.045,-0.034,-0.008,106.0,105.0,101.0,13.4,1505.2,327.2,-0.8,1.8,2470.938,13.28,0.056,127.1
2022-06-09T02:46:03,42.805,6.029,0.041,-0.033,-0.038,105.0,104.0,102.0,13.3,1505.2,321.1,-0.7,1.8,2470.934,13.28,0.052,128.8
2022-06-09T02:49:03,42.805,6.029,0.035,-0.005,0.009,106.0,106.0,102.0,13.3,1505.2,323.2,-0.8,1.8,2470.93,13.28,0.035,98.1
2022-06-09T02:52:03,42.805,6.029,0.045,-0.025,0.002,106.0,106.0,102.0,13.4,1505.2,322.5,-0.8,1.8,2470.924,13.28,0.051,119.1
2022-06-09T02:55:03,42.805,6.029,0.059,-0.001,0.002,104.0,104.0,102.0,13.4,1505.2,329.1,-0.8,1.8,2470.926,13.28,0.059,91.0
2022-06-09T02:58:03,42.805,6.029,0.056,-0.021,0.016,104.0,105.0,103.0,13.3,1505.2,327.2,-0.8,1.9,2470.95,13.28,0.059,110.6
2022-06-09T03:04:03,42.805,6.029,0.066,-0.023,0.004,106.0,102.0,101.0,13.4,1505.2,322.9,-0.8,1.8,2470.972,13.28,0.069,109.2
2022-06-09T03:07:03,42.805,6.029,0.057,-0.015,0.03,105.0,104.0,101.0,13.4,1505.2,321.9,-0.7,1.8,2470.945,13.28,0.058,104.7
2022-06-09T03:10:03,42.805,6.029,0.035,-0.024,-0.005,105.0,105.0,101.0,13.4,1505.2,332.5,-0.8,1.8,2470.973,13.28,0.042,124.4
2022-06-09T03:13:03,42.805,6.029,0.071,-0.021,-0.003,106.0,104.0,101.0,13.4,1505.2,330.0,-0.8,1.8,2470.959,13.28,0.074,106.5
2022-06-09T03:16:03,42.805,6.029,0.07,-0.026,-0.004,105.0,104.0,101.0,13.4,1505.2,326.0,-0.8,1.8,2470.952,13.28,0.074,110.4
2022-06-09T03:19:03,42.805,6.029,0.048,-0.024,-0.015,105.0,104.0,102.0,13.4,1505.2,326.5,-0.8,1.8,2470.945,13.28,0.053,116.6
2022-06-09T03:22:03,42.805,6.029,0.047,-0.014,0.025,105.0,105.0,102.0,13.4,1505.2,323.1,-0.8,1.8,2470.922,13.28,0.049,106.6
2022-06-09T03:25:03,42.805,6.029,0.057,-0.011,0.007,105.0,105.0,101.0,13.3,1505.2,321.7,-0.8,1.8,2470.941,13.28,0.058,100.9
2022-06-09T03:28:03,42.805,6.029,0.064,-0.006,-0.005,105.0,105.0,100.0,13.3,1505.2,326.5,-0.7,1.8,2470.951,13.28,0.064,95.4
2022-06-09T03:31:03,42.805,6.029,0.059,-0.031,-0.041,104.0,104.0,101.0,13.4,1505.2,321.9,-0.7,1.8,2470.945,13.28,0.066,117.7
2022-06-09T03:34:03,42.805,6.029,0.044,-0.003,0.003,104.0,102.0,101.0,13.4,1505.2,332.1,-0.7,1.8,2470.914,13.28,0.044,93.9
2022-06-09T03:37:03,42.805,6.029,0.044,-0.015,-0.018,104.0,103.0,101.0,13.4,1505.2,327.3,-0.7,1.8,2470.91,13.28,0.046,108.8
2022-06-09T03:40:03,42.805,6.029,0.06,-0.026,0.02,104.0,103.0,101.0,13.4,1505.2,324.6,-0.8,1.8,2470.924,13.28,0.065,113.4
2022-06-09T03:43:03,42.805,6.029,0.065,-0.048,-0.014,105.0,104.0,100.0,13.4,1505.2,329.7,-0.8,1.8,2470.909,13.28,0.08,126.4
2022-06-09T03:46:03,42.805,6.029,0.073,-0.028,0.011,104.0,104.0,101.0,13.4,1505.2,329.0,-0.8,1.9,2470.887,13.28,0.078,111.0
2022-06-09T03:49:03,42.805,6.029,0.064,-0.014,0.011,104.0,104.0,101.0,13.3,1505.2,322.6,-0.8,1.8,2470.922,13.28,0.065,102.3
2022-06-09T03:52:03,42.805,6.029,0.033,-0.023,0.0,103.0,103.0,102.0,13.3,1505.2,328.2,-0.7,1.8,2470.946,13.28,0.04,124.9
2022-06-09T03:55:03,42.805,6.029,0.042,-0.029,-0.007,104.0,104.0,102.0,13.4,1505.2,329.7,-0.7,1.9,2470.937,13.28,0.051,124.6
2022-06-09T03:58:03,42.805,6.029,0.055,-0.033,-0.011,104.0,104.0,101.0,13.3,1505.2,326.5,-0.8,1.8,2470.93,13.28,0.064,121.0
2022-06-09T04:04:03,42.805,6.029,0.057,-0.051,-0.067,104.0,104.0,101.0,13.4,1505.2,333.0,-0.7,1.8,2470.96,13.28,0.076,131.8
2022-06-09T04:07:03,42.805,6.029,0.053,-0.051,-0.02,106.0,104.0,101.0,13.4,1505.2,328.4,-0.8,1.8,2470.945,13.28,0.073,133.9
2022-06-09T04:10:03,42.805,6.029,0.059,-0.039,-0.028,103.0,104.0,100.0,13.4,1505.2,327.2,-0.8,1.8,2470.959,13.28,0.07,123.5
2022-06-09T04:13:03,42.805,6.029,0.048,-0.015,-0.016,103.0,103.0,101.0,13.4,1505.2,328.9,-0.8,1.8,2470.942,13.28,0.05,107.4
2022-06-09T04:16:03,42.805,6.029,0.046,-0.035,-0.012,103.0,103.0,101.0,13.4,1505.2,329.6,-0.8,1.8,2470.958,13.28,0.057,127.3
2022-06-09T04:19:03,42.805,6.029,0.038,-0.037,-0.005,103.0,104.0,101.0,13.3,1505.2,327.9,-0.8,1.8,2470.901,13.28,0.053,134.2
2022-06-09T04:22:03,42.805,6.029,0.062,-0.013,0.011,103.0,103.0,100.0,13.4,1505.2,326.8,-0.8,1.8,2470.921,13.28,0.063,101.8
2022-06-09T04:25:03,42.805,6.029,0.072,-0.027,-0.012,103.0,104.0,100.0,13.4,1505.2,327.3,-0.7,1.8,2470.866,13.28,0.076,110.6
2022-06-09T04:28:03,42.805,6.029,0.066,-0.019,0.008,103.0,103.0,100.0,13.4,1505.2,326.4,-0.8,1.8,2470.926,13.28,0.068,106.1
2022-06-09T04:31:03,42.805,6.029,0.053,-0.017,-0.001,102.0,103.0,102.0,13.4,1505.2,332.5,-0.7,1.8,2470.923,13.28,0.055,107.8
2022-06-09T04:34:03,42.805,6.029,0.039,-0.017,0.028,104.0,102.0,101.0,13.4,1505.2,329.0,-0.8,1.8,2470.858,13.28,0.042,113.5
2022-06-09T04:37:03,42.805,6.029,0.061,-0.027,-0.028,103.0,103.0,100.0,13.3,1505.2,324.7,-0.7,1.8,2470.928,13.28,0.066,113.9
2022-06-09T04:40:03,42.805,6.029,0.059,-0.021,0.03,104.0,103.0,101.0,13.3,1505.2,331.3,-0.8,1.8,2470.862,13.28,0.062,109.6
2022-06-09T04:43:03,42.805,6.029,0.043,-0.013,0.019,102.0,103.0,100.0,13.4,1505.2,330.9,-0.8,1.8,2470.92,13.28,0.044,106.8
2022-06-09T04:46:03,42.805,6.029,0.058,-0.016,0.004,103.0,103.0,102.0,13.4,1505.2,326.9,-0.8,1.8,2470.879,13.28,0.06,105.4
2022-06-09T04:49:03,42.805,6.029,0.059,-0.017,0.01,103.0,103.0,100.0,13.4,1505.2,328.7,-0.7,1.8,2470.913,13.28,0.061,106.1
2022-06-09T04:52:03,42.805,6.029,0.045,0.001,0.012,104.0,102.0,100.0,13.4,1505.2,325.6,-0.8,1.8,2470.877,13.28,0.045,88.7
2022-06-09T04:55:03,42.805,6.029,0.071,-0.037,0.023,103.0,102.0,100.0,13.3,1505.2,328.2,-0.8,1.9,2470.88,13.28,0.08,117.5
2022-06-09T04:58:03,42.805,6.029,0.052,-0.026,-0.014,103.0,103.0,101.0,13.4,1505.2,323.4,-0.7,1.8,2470.857,13.28,0.058,116.6
2022-06-09T05:04:03,42.805,6.029,0.052,0.001,0.008,104.0,103.0,101.0,13.3,1505.2,323.3,-0.8,1.9,2470.915,13.28,0.052,88.9
2022-06-09T05:07:03,42.805,6.029,0.063,-0.026,-0.013,105.0,104.0,100.0,13.4,1505.2,330.0,-0.8,1.8,2470.934,13.28,0.068,112.4
2022-06-09T05:10:03,42.805,6.029,0.04,0.002,0.014,103.0,105.0,101.0,13.4,1505.2,328.2,-0.8,1.8,2470.926,13.28,0.04,87.1
2022-06-09T05:13:03,42.805,6.029,0.064,-0.013,-0.014,103.0,104.0,100.0,13.4,1505.2,327.8,-0.8,1.9,2470.916,13.28,0.065,101.5
2022-06-09T05:16:03,42.805,6.029,0.055,-0.005,0.021,105.0,105.0,101.0,13.4,1505.2,324.9,-0.7,1.8,2470.876,13.28,0.055,95.2
2022-06-09T05:19:03,42.805,6.029,0.073,-0.014,-0.031,103.0,104.0,99.0,13.4,1505.2,324.2,-0.8,1.8,2470.862,13.28,0.074,100.9
2022-06-09T05:22:03,42.805,6.029,0.07,-0.006,0.016,103.0,104.0,100.0,13.3,1505.2,329.0,-0.7,1.8,2470.895,13.28,0.07,94.9
2022-06-09T05:25:03,42.805,6.029,0.065,-0.027,-0.015,104.0,102.0,100.0,13.4,1505.2,320.3,-0.8,1.8,2470.913,13.28,0.07,112.6
2022-06-09T05:28:03,42.805,6.029,0.087,-0.024,0.003,104.0,103.0,100.0,13.4,1505.2,324.6,-0.8,1.8,2470.887,13.28,0.09,105.4
2022-06-09T05:31:03,42.805,6.029,0.061,-0.01,-0.016,104.0,102.0,100.0,13.4,1505.2,321.8,-0.8,1.8,2470.878,13.28,0.061,99.3
2022-06-09T05:34:03,42.805,6.029,0.068,-0.01,0.034,104.0,102.0,101.0,13.3,1505.2,328.9,-0.7,1.8,2470.87,13.28,0.068,98.4
2022-06-09T05:37:03,42.805,6.029,0.065,0.0,-0.011,103.0,103.0,101.0,13.4,1505.2,326.7,-0.8,1.8,2470.843,13.28,0.064,90.0
2022-06-09T05:40:03,42.805,6.029,0.051,0.002,0.01,103.0,102.0,101.0,13.3,1505.2,326.3,-0.7,1.8,2470.853,13.28,0.051,87.8
2022-06-09T05:43:03,42.805,6.029,0.05,-0.028,-0.025,104.0,104.0,100.0,13.4,1505.2,326.8,-0.7,1.8,2470.849,13.28,0.057,119.3
2022-06-09T05:46:03,42.805,6.029,0.064,-0.022,-0.004,103.0,103.0,100.0,13.4,1505.2,326.8,-0.8,1.8,2470.908,13.28,0.067,109.0
2022-06-09T05:49:03,42.805,6.029,0.045,-0.015,0.013,105.0,105.0,101.0,13.3,1505.2,325.0,-0.7,1.9,2470.918,13.28,0.047,108.4
2022-06-09T05:52:03,42.805,6.029,0.057,-0.005,0.01,104.0,103.0,101.0,13.4,1505.2,330.6,-0.7,1.8,2470.853,13.28,0.057,95.0
2022-06-09T05:55:03,42.805,6.029,0.057,-0.007,0.0,103.0,104.0,100.0,13.3,1505.2,321.4,-0.7,1.9,2470.861,13.28,0.057,97.0
2022-06-09T05:58:03,42.805,6.029,0.047,-0.025,-0.002,104.0,103.0,100.0,13.3,1505.2,320.9,-0.8,1.8,2470.892,13.28,0.053,118.0
2022-06-09T06:04:03,42.805,6.029,0.069,-0.009,0.019,105.0,105.0,99.0,13.4,1505.2,330.1,-0.8,1.8,2470.914,13.28,0.069,97.4
2022-06-09T06:07:03,42.805,6.029,0.074,-0.023,0.009,104.0,105.0,99.0,13.4,1505.2,322.9,-0.7,1.8,2470.902,13.28,0.077,107.3
2022-06-09T06:10:03,42.805,6.029,0.065,-0.021,0.018,103.0,103.0,101.0,13.4,1505.2,328.8,-0.8,1.8,2470.878,13.28,0.068,107.9
2022-06-09T06:13:03,42.805,6.029,0.048,-0.034,-0.002,102.0,103.0,100.0,13.4,1505.2,330.1,-0.8,1.8,2470.923,13.28,0.058,125.3
2022-06-09T06:16:03,42.805,6.029,0.036,-0.024,0.004,102.0,104.0,100.0,13.3,1505.2,329.7,-0.8,1.8,2470.845,13.28,0.043,123.7
2022-06-09T06:19:03,42.805,6.029,0.061,0.0,0.001,103.0,103.0,101.0,13.4,1505.2,326.3,-0.7,1.8,2470.873,13.28,0.06,90.0
2022-06-09T06:22:03,42.805,6.029,0.071,-0.007,0.036,103.0,102.0,101.0,13.4,1505.2,326.4,-0.8,1.8,2470.851,13.28,0.071,95.6
2022-06-09T06:25:03,42.805,6.029,0.043,-0.003,-0.005,102.0,104.0,101.0,13.3,1505.2,321.7,-0.8,1.8,2470.861,13.28,0.043,94.0
2022-06-09T06:28:03,42.805,6.029,0.063,-0.01,0.004,104.0,104.0,101.0,13.4,1505.2,322.0,-0.8,1.8,2470.885,13.28,0.063,99.0
2022-06-09T06:31:03,42.805,6.029,0.057,-0.019,0.005,103.0,104.0,102.0,13.3,1505.2,329.5,-0.8,1.8,2470.899,13.28,0.06,108.4
2022-06-09T06:34:03,42.805,6.029,0.082,-0.014,0.008,103.0,103.0,100.0,13.3,1505.2,327.2,-0.8,1.8,2470.849,13.28,0.083,99.7
2022-06-09T06:37:03,42.805,6.029,0.036,-0.018,-0.021,103.0,104.0,101.0,13.3,1505.2,328.2,-0.8,1.8,2470.854,13.28,0.04,116.6
2022-06-09T06:40:03,42.805,6.029,0.059,0.004,-0.019,104.0,104.0,101.0,13.4,1505.2,321.5,-0.7,1.8,2470.837,13.28,0.059,86.1
2022-06-09T06:43:03,42.805,6.029,0.068,-0.031,-0.019,103.0,103.0,101.0,13.4,1505.2,324.8,-0.8,1.8,2470.859,13.28,0.074,114.5
2022-06-09T06:46:03,42.805,6.029,0.045,0.005,0.01,103.0,104.0,101.0,13.3,1505.2,320.5,-0.8,1.8,2470.799,13.28,0.045,83.7
2022-06-09T06:49:03,42.805,6.029,0.043,-0.003,0.02,103.0,104.0,100.0,13.3,1505.2,324.4,-0.8,1.8,2470.874,13.28,0.043,94.0
2022-06-09T06:52:03,42.805,6.029,0.056,0.0,0.01,103.0,102.0,100.0,13.4,1505.2,322.0,-0.7,1.8,2470.843,13.28,0.056,90.0
2022-06-09T06:55:03,42.805,6.029,0.044,-0.034,-0.026,103.0,102.0,100.0,13.3,1505.2,324.0,-0.7,1.8,2470.83,13.28,0.055,127.7
2022-06-09T06:58:03,42.805,6.029,0.071,-0.017,0.022,103.0,103.0,100.0,13.4,1505.2,324.1,-0.8,1.8,2470.838,13.28,0.073,103.5
2022-06-09T07:04:03,42.805,6.029,0.042,-0.017,-0.017,102.0,103.0,100.0,13.3,1505.2,321.3,-0.8,1.8,2470.849,13.28,0.045,112.0
2022-06-09T07:07:03,42.805,6.029,0.053,-0.028,0.007,103.0,103.0,100.0,13.4,1505.2,330.9,-0.8,1.8,2470.841,13.28,0.059,117.9
2022-06-09T07:10:03,42.805,6.029,0.061,-0.02,-0.02,104.0,103.0,101.0,13.4,1505.2,333.8,-0.7,1.8,2470.829,13.28,0.064,108.1
2022-06-09T07:13:03,42.805,6.029,0.046,-0.025,0.022,103.0,104.0,101.0,13.4,1505.2,329.6,-0.7,1.8,2470.851,13.28,0.052,118.5
2022-06-09T07:16:03,42.805,6.029,0.052,-0.025,0.002,104.0,103.0,100.0,13.3,1505.2,331.1,-0.8,1.8,2470.842,13.28,0.057,115.7
2022-06-09T07:19:03,42.805,6.029,0.049,-0.019,-0.006,102.0,104.0,100.0,13.3,1505.2,328.7,-0.8,1.8,2470.843,13.28,0.052,111.2
2022-06-09T07:22:03,42.805,6.029,0.046,-0.001,-0.007,102.0,103.0,100.0,13.4,1505.2,321.4,-0.7,1.8,2470.855,13.28,0.046,91.2
2022-06-09T07:25:03,42.805,6.029,0.037,-0.004,0.009,104.0,104.0,99.0,13.4,1505.2,333.2,-0.7,1.8,2470.787,13.28,0.037,96.2
2022-06-09T07:28:03,42.805,6.029,0.038,-0.015,-0.008,103.0,103.0,100.0,13.4,1505.2,330.2,-0.8,1.8,2470.847,13.28,0.04,111.5
2022-06-09T07:31:03,42.805,6.029,0.047,-0.017,0.023,103.0,104.0,101.0,13.4,1505.2,328.0,-0.8,1.8,2470.829,13.28,0.049,109.9
2022-06-09T07:34:03,42.805,6.029,0.043,0.001,0.014,103.0,103.0,100.0,13.4,1505.2,323.2,-0.7,1.8,2470.823,13.28,0.043,88.7
2022-06-09T07:37:03,42.805,6.029,0.017,-0.01,0.002,103.0,103.0,100.0,13.3,1505.2,325.5,-0.7,1.9,2470.823,13.28,0.019,120.5
2022-06-09T07:40:03,42.805,6.029,0.047,-0.022,0.001,104.0,102.0,101.0,13.4,1505.2,328.6,-0.8,1.8,2470.785,13.28,0.051,115.1
2022-06-09T07:43:03,42.805,6.029,0.022,-0.01,0.007,103.0,103.0,101.0,13.4,1505.2,330.1,-0.8,1.8,2470.8,13.28,0.024,114.4
2022-06-09T07:46:03,42.805,6.029,0.057,0.004,0.014,103.0,102.0,101.0,13.4,1505.2,321.3,-0.8,1.8,2470.827,13.28,0.057,86.0
2022-06-09T07:49:03,42.805,6.029,0.058,-0.017,0.025,105.0,103.0,101.0,13.4,1505.2,323.3,-0.8,1.8,2470.815,13.28,0.06,106.3
2022-06-09T07:52:03,42.805,6.029,0.044,-0.016,0.006,103.0,104.0,99.0,13.4,1505.2,327.2,-0.8,1.8,2470.85,13.28,0.046,110.0
2022-06-09T07:55:03,42.805,6.029,0.05,-0.004,0.003,104.0,103.0,100.0,13.4,1505.2,325.0,-0.7,1.8,2470.802,13.28,0.05,94.6
2022-06-09T07:58:03,42.805,6.029,0.036,-0.013,-0.001,103.0,103.0,100.0,13.4,1505.2,331.9,-0.8,1.8,2470.806,13.28,0.038,109.9
2022-06-09T08:04:03,42.805,6.029,0.046,-0.03,-0.008,103.0,104.0,101.0,13.4,1505.2,326.7,-0.8,1.8,2470.873,13.28,0.054,123.1
2022-06-09T08:07:03,42.805,6.029,0.034,-0.019,0.0,104.0,103.0,101.0,13.4,1505.2,324.6,-0.8,1.8,2470.855,13.28,0.038,119.2
2022-06-09T08:10:03,42.805,6.029,0.046,-0.008,0.0,104.0,103.0,102.0,13.4,1505.2,324.8,-0.8,1.8,2470.819,13.28,0.046,99.9
2022-06-09T08:13:03,42.805,6.029,0.047,0.002,-0.001,104.0,103.0,101.0,13.3,1505.2,328.4,-0.8,1.8,2470.812,13.28,0.047,87.6
2022-06-09T08:16:03,42.805,6.029,0.046,-0.008,0.009,102.0,104.0,101.0,13.3,1505.2,322.2,-0.8,1.8,2470.797,13.28,0.046,99.9
2022-06-09T08:19:03,42.805,6.029,0.046,0.008,-0.018,103.0,103.0,101.0,13.4,1505.2,323.3,-0.8,1.9,2470.803,13.28,0.046,80.1
2022-06-09T08:22:03,42.805,6.029,0.05,0.004,0.025,105.0,104.0,100.0,13.4,1505.2,330.0,-0.7,1.8,2470.796,13.28,0.05,85.4
2022-06-09T08:25:03,42.805,6.029,0.03,-0.004,-0.017,102.0,105.0,101.0,13.4,1505.2,324.7,-0.7,1.8,2470.778,13.28,0.03,97.6
2022-06-09T08:28:03,42.805,6.029,0.037,-0.007,0.008,104.0,103.0,101.0,13.4,1505.2,328.2,-0.7,1.8,2470.825,13.28,0.037,100.7
2022-06-09T08:31:03,42.805,6.029,0.058,-0.008,0.001,103.0,104.0,102.0,13.4,1505.2,321.2,-0.7,1.8,2470.788,13.28,0.058,97.8
2022-06-09T08:34:03,42.805,6.029,0.048,-0.022,0.001,103.0,104.0,102.0,13.3,1505.2,325.3,-0.7,1.9,2470.8,13.28,0.052,114.6
2022-06-09T08:37:03,42.805,6.029,0.045,-0.004,0.012,103.0,104.0,101.0,13.3,1505.2,323.0,-0.8,1.8,2470.789,13.28,0.045,95.1
2022-06-09T08:40:03,42.805,6.029,0.048,-0.002,-0.015,104.0,103.0,101.0,13.4,1505.2,321.4,-0.8,1.8,2470.762,13.28,0.048,92.4
2022-06-09T08:43:03,42.805,6.029,0.058,-0.005,-0.017,102.0,106.0,100.0,13.4,1505.2,324.2,-0.7,1.8,2470.777,13.28,0.058,94.9
2022-06-09T08:46:03,42.805,6.029,0.037,0.006,0.001,104.0,104.0,100.0,13.4,1505.2,322.8,-0.8,1.8,2470.775,13.28,0.037,80.8
2022-06-09T08:49:03,42.805,6.029,0.06,-0.017,0.011,103.0,105.0,100.0,13.4,1505.2,323.3,-0.7,1.8,2470.764,13.28,0.062,105.8
2022-06-09T08:52:03,42.805,6.029,0.034,-0.005,-0.03,102.0,105.0,102.0,13.4,1505.2,327.9,-0.8,1.8,2470.768,13.28,0.034,98.4
2022-06-09T08:55:03,42.805,6.029,0.042,-0.017,0.026,104.0,104.0,100.0,13.4,1505.2,320.5,-0.7,1.8,2470.777,13.28,0.045,112.0
2022-06-09T08:58:03,42.805,6.029,0.058,-0.027,-0.014,104.0,103.0,101.0,13.4,1505.2,322.6,-0.8,1.8,2470.795,13.28,0.063,115.0
2022-06-09T09:04:03,42.805,6.029,0.033,0.007,-0.003,103.0,103.0,101.0,13.4,1505.2,324.6,-0.8,1.8,2470.797,13.28,0.033,78.0
2022-06-09T09:07:03,42.805,6.029,0.037,0.004,-0.001,103.0,104.0,101.0,13.4,1505.2,328.0,-0.7,1.8,2470.8,13.28,0.037,83.8
2022-06-09T09:10:03,42.805,6.029,0.034,-0.017,-0.033,103.0,104.0,101.0,13.4,1505.2,329.0,-0.7,1.8,2470.813,13.28,0.038,116.6
2022-06-09T09:13:03,42.805,6.029,0.034,0.003,-0.026,105.0,102.0,101.0,13.4,1505.2,325.7,-0.7,1.8,2470.792,13.28,0.034,85.0
2022-06-09T09:16:03,42.805,6.029,0.045,0.002,0.015,104.0,103.0,101.0,13.3,1505.2,326.0,-0.8,1.8,2470.765,13.28,0.045,87.5
2022-06-09T09:19:03,42.805,6.029,0.044,0.0,-0.002,103.0,104.0,101.0,13.3,1505.2,321.7,-0.8,1.8,2470.797,13.28,0.044,90.0
2022-06-09T09:22:03,42.805,6.029,0.043,-0.009,0.01,103.0,105.0,101.0,13.4,1505.2,323.3,-0.8,1.8,2470.804,13.28,0.043,101.8
2022-06-09T09:25:03,42.805,6.029,0.043,0.01,0.016,104.0,104.0,101.0,13.3,1505.2,322.7,-0.8,1.8,2470.761,13.28,0.044,76.9
2022-06-09T09:28:03,42.805,6.029,0.039,-0.005,-0.034,101.0,105.0,101.0,13.3,1505.2,329.7,-0.8,1.8,2470.794,13.28,0.039,97.3
2022-06-09T09:31:03,42.805,6.029,0.038,-0.018,-0.001,104.0,103.0,101.0,13.4,1505.2,320.9,-0.8,1.9,2470.777,13.28,0.042,115.3
2022-06-09T09:34:03,42.805,6.029,0.022,-0.01,0.002,105.0,101.0,101.0,13.4,1505.2,332.7,-0.8,1.8,2470.735,13.28,0.024,114.4
2022-06-09T09:37:03,42.805,6.029,0.031,0.001,-0.004,104.0,102.0,101.0,13.4,1505.2,324.0,-0.7,1.8,2470.775,13.28,0.031,88.2
2022-06-09T09:40:03,42.805,6.029,0.039,0.002,-0.008,102.0,104.0,102.0,13.4,1505.2,327.8,-0.8,1.8,2470.751,13.28,0.039,87.1
2022-06-09T09:43:03,42.805,6.029,0.023,-0.014,-0.005,102.0,104.0,101.0,13.4,1505.2,327.9,-0.8,1.8,2470.808,13.28,0.026,121.3
2022-06-09T09:46:03,42.805,6.029,0.043,-0.008,0.001,103.0,105.0,101.0,13.4,1505.2,328.0,-0.7,1.8,2470.782,13.28,0.043,100.5
2022-06-09T09:49:03,42.805,6.029,0.025,-0.008,0.0,104.0,104.0,100.0,13.4,1505.2,324.0,-0.8,1.8,2470.758,13.28,0.026,107.7
2022-06-09T09:52:03,42.805,6.029,0.048,-0.019,-0.022,104.0,104.0,100.0,13.4,1505.2,329.0,-0.8,1.8,2470.778,13.28,0.051,111.6
2022-06-09T09:55:03,42.805,6.029,0.032,0.023,0.021,103.0,102.0,101.0,13.4,1505.2,327.0,-0.8,1.8,2470.75,13.28,0.039,54.3
2022-06-09T09:58:03,42.805,6.029,0.06,-0.001,0.021,103.0,103.0,101.0,13.4,1505.2,324.3,-0.7,1.8,2470.78,13.28,0.06,91.0